Weather History for KESN - May, 2013

Change the Weather History Date:

Tuesday, May 7, 2013

  Actual Average Record
Temperature  
Mean Temperature 58 °F -  
Max Temperature 62 °F 72 °F 87 °F (1959)
Min Temperature 55 °F 48 °F 35 °F (1970)
Degree Days  
Heating Degree Days 6    
Growing Degree Days 8 (Base 50)    
Moisture  
Dew Point 58 °F    
Average Humidity 100    
Maximum Humidity 100    
Minimum Humidity 100    
Precipitation  
Precipitation 0.01 in - - ()
Sea Level Pressure  
Sea Level Pressure 30.06 in    
Wind  
Wind Speed 9 mph (East)    
Max Wind Speed 14 mph    
Max Gust Speed 21 mph    
Visibility 4 miles    
Events Rain    
Averages and records for this station are not official NWS values.
T = Trace of Precipitation, MM = Missing Value Source: NWS Daily Summary

Daily Weather History Graph

Daily Weather History Graph

Search for Another Location

Airport or City:

Trip Planner

Search our weather history database for the weather conditions in past years. The results will help you decide how hot, cold, wet, or windy it might be!

Date:

Astronomy

May. 07, 2013 Rise Set
Actual Time 5:59 AM EDT 8:02 PM EDT
Civil Twilight 5:30 AM EDT 8:31 PM EDT
Nautical Twilight 4:54 AM EDT 9:07 PM EDT
Astronomical Twilight 4:16 AM EDT 9:46 PM EDT
Moon 4:31 AM EDT 6:01 PM EDT
Length of Visible Light 15h 01m
Length of Day
14h 03m
Waning Crescent, 5% of the Moon is Illuminated
May 7
Waning Crescent
May 9
New
May 18
First Quarter
May 25
Full
May 31
Last Quarter

Hourly Weather History & Observations

Time (EDT) Temp. Dew Point Humidity Pressure Visibility Wind Dir Wind Speed Gust Speed Precip Events Conditions
12:01 AM 55.4 °F 55.4 °F 100% 30.12 in 1.5 mi East 8.1 mph - N/A   Overcast
12:21 AM 55.4 °F 55.4 °F 100% 30.12 in 1.5 mi East 8.1 mph - N/A   Overcast
12:41 AM 55.6 °F 55.6 °F 100% 30.12 in 1.5 mi East 8.1 mph - N/A   Overcast
1:01 AM 55.4 °F 55.4 °F 100% 30.11 in 1.5 mi East 9.2 mph - N/A   Overcast
1:21 AM 55.6 °F 55.6 °F 100% 30.10 in 1.5 mi East 8.1 mph - N/A   Overcast
1:41 AM 55.6 °F 55.6 °F 100% 30.10 in 1.8 mi East 9.2 mph - N/A   Overcast
2:01 AM 55.6 °F 55.6 °F 100% 30.09 in 1.5 mi East 8.1 mph - N/A   Overcast
2:21 AM 55.4 °F 55.4 °F 100% 30.08 in 1.2 mi East 6.9 mph - N/A   Overcast
2:41 AM 55.4 °F 55.4 °F 100% 30.07 in 1.2 mi East 9.2 mph 16.1 mph N/A   Overcast
3:01 AM 55.6 °F 55.6 °F 100% 30.07 in 1.0 mi East 6.9 mph - N/A   Overcast
3:22 AM 55.8 °F 55.8 °F 100% 30.06 in 1.0 mi East 6.9 mph - N/A   Overcast
3:42 AM 55.9 °F 55.9 °F 100% 30.06 in 1.0 mi East 6.9 mph - N/A   Overcast
4:02 AM 56.1 °F 56.1 °F 100% 30.06 in 1.2 mi East 5.8 mph - N/A   Overcast
4:22 AM 56.1 °F 56.1 °F 100% 30.06 in 1.5 mi East 9.2 mph - N/A   Overcast
4:42 AM 56.3 °F 56.3 °F 100% 30.06 in 1.5 mi East 8.1 mph - N/A   Overcast
5:02 AM 55.9 °F 55.9 °F 100% 30.06 in 2.0 mi East 8.1 mph - N/A   Overcast
5:22 AM 55.9 °F 55.9 °F 100% 30.06 in 5.0 mi East 9.2 mph - N/A   Overcast
5:42 AM 55.9 °F 55.9 °F 100% 30.06 in 2.5 mi East 10.4 mph - N/A   Overcast
5:50 AM 55.4 °F 55.4 °F 100% 30.06 in 1.8 mi East 9.2 mph - N/A   Overcast
6:02 AM 56.3 °F 56.3 °F 100% 30.05 in 1.8 mi East 10.4 mph - N/A   Overcast
6:22 AM 56.3 °F 56.3 °F 100% 30.05 in 1.2 mi East 9.2 mph - N/A   Overcast
6:42 AM 56.5 °F 56.5 °F 100% 30.06 in 1.8 mi East 9.2 mph 16.1 mph N/A   Overcast
6:50 AM 57.2 °F 57.2 °F 100% 30.06 in 1.8 mi East 10.4 mph - N/A   Overcast
7:02 AM 56.7 °F 56.7 °F 100% 30.06 in 1.8 mi East 12.7 mph - N/A   Overcast
7:22 AM 56.7 °F 56.7 °F 100% 30.07 in 1.8 mi East 11.5 mph 18.4 mph N/A   Overcast
7:41 AM 56.7 °F 56.7 °F 100% 30.07 in 2.0 mi ESE 9.2 mph 17.3 mph 0.01 in Rain Rain
7:50 AM 57.2 °F 57.2 °F 100% 30.08 in 2.5 mi East 9.2 mph - N/A Rain Rain
8:50 AM 57.2 °F 57.2 °F 100% 30.08 in 4.0 mi East 8.1 mph - N/A Rain Rain
9:50 AM 57.2 °F 57.2 °F 100% 30.08 in 10.0 mi ENE 8.1 mph - N/A Rain Light Rain
10:51 AM 59.0 °F 59.0 °F 100% 30.08 in 7.0 mi East 8.1 mph - N/A Rain Light Rain
11:55 AM 59.0 °F 59.0 °F 100% 30.07 in 5.0 mi ENE 9.2 mph - N/A Rain Light Rain
12:53 PM 60.8 °F 60.8 °F 100% 30.06 in 7.0 mi East 9.2 mph - N/A   Overcast
1:53 PM 62.6 °F 62.6 °F 100% 30.04 in 7.0 mi East 9.2 mph 17.3 mph N/A   Overcast
2:53 PM 62.6 °F 62.6 °F 100% 30.03 in 10.0 mi East 9.2 mph 17.3 mph N/A   Overcast
3:53 PM 62.6 °F 62.6 °F 100% 30.02 in 7.0 mi East 13.8 mph 20.7 mph N/A Rain Light Rain
4:53 PM 62.6 °F 62.6 °F 100% 30.00 in 10.0 mi East 11.5 mph 18.4 mph N/A   Overcast
5:53 PM 62.6 °F 62.6 °F 100% 29.99 in 10.0 mi East 13.8 mph - N/A   Overcast
6:53 PM 60.8 °F 60.8 °F 100% 30.00 in 7.0 mi East 11.5 mph - N/A   Overcast
7:53 PM 60.8 °F 60.8 °F 100% 30.01 in 7.0 mi East 11.5 mph - N/A   Overcast
8:53 PM 60.8 °F 60.8 °F 100% 30.01 in 10.0 mi ESE 6.9 mph - N/A   Overcast
11:04 PM 58.5 °F 58.5 °F 100% 30.03 in 10.0 mi ESE 8.1 mph - N/A   Scattered Clouds
11:24 PM 59.0 °F 59.0 °F 100% 30.03 in 10.0 mi SE 5.8 mph - N/A   Clear
11:44 PM 57.9 °F 57.9 °F 100% 30.03 in 10.0 mi ESE 3.5 mph - N/A   Clear